Flag for Germany Weather past 2 weeks in Heidenheim an der Brenz, Baden-Württemberg, Germany

54 °F


Feels Like: 54 °F
Forecast: 48 / 57 °F
Wind: 3 mph from West

Location: Stoetten

Current Time: Oct 7, 2015 at 2:27:03 AM

Latest Report: Oct 7, 2015 at 2:00 AM

Visibility: 34 mi

Pressure: 29.80 "Hg

Humidity: 97%

Dew point: 53 °F

Location of Heidenheim an der BrenzLocation

Historic Weather in Heidenheim an der Brenz — Graph


Heidenheim an der Brenz temperature yesterday

Maximum temperature yesterday: 65 °F (at 12:00 PM)
Minimum temperature yesterday: 51 °F (at 2:00 AM)
Average temperature yesterday: 56 °F

Past Weeks' High & Low Weather Summary

High65 °F (Oct 6, 12:00 PM)100% (Sep 23, 9:00 PM)30.52 "Hg (Sep 23, 9:00 PM)
Low36 °F (Oct 1, 8:00 AM)43% (Oct 2, 4:00 PM)29.66 "Hg (Sep 22, 5:00 PM)
Average51 °F77%30.14 "Hg
* Reported Sep 22 1:00 AM — Oct 7 1:00 AM, Heidenheim an der Brenz, Weather by CustomWeather, © 2015

Note: Actual official high and low records may vary slightly from our data, if they occured in-between our weather recording intervals... More about our weather records


Heidenheim an der Brenz weather history for previous 24 hours

Time TempWeatherWind HumidityBarometerVisibility
1:00 AM
Wed, Oct 7
54 °FDrizzle. Overcast.3 mph98%29.81 "Hg14 mi
11:00 PM
Tue, Oct 6
54 °FOvercast.3 mph99%29.80 "Hg10 mi
10:00 PM54 °FOvercast.3 mph99%29.79 "Hg11 mi
9:00 PM55 °FOvercast.3 mph98%29.79 "Hg31 mi
8:00 PM55 °FOvercast.3 mph99%29.78 "Hg37 mi
7:00 PM55 °FSprinkles. Low clouds.6 mph96%29.77 "Hg28 mi
6:00 PM54 °FLight rain. Low clouds.2 mph100%29.75 "Hg7 mi
5:00 PM58 °FThundershowers. Low clouds.10 mph96%29.72 "Hg12 mi
4:00 PM60 °FSprinkles. Overcast.8 mph91%29.70 "Hg28 mi
3:00 PM64 °FOvercast.2 mph80%29.67 "Hg43 mi
2:00 PM63 °FOvercast.2 mph81%29.69 "Hg43 mi
1:00 PM63 °FOvercast.2 mph84%29.70 "Hg47 mi
12:00 PM65 °FOvercast.3 mph71%29.69 "Hg47 mi
11:00 AM63 °FPartly sunny.2 mph78%29.71 "Hg47 mi
10:00 AM58 °FPartly sunny.2 mph89%29.74 "Hg25 mi
9:00 AM56 °FFog.2 mph95%29.75 "Hg5 mi
8:00 AM53 °FFog.3 mph100%29.78 "Hg1 mi
7:00 AM52 °FOvercast.3 mph100%29.79 "Hg6 mi
5:00 AM51 °FFog.3 mph100%29.80 "Hg2 mi
4:00 AM52 °FOvercast.3 mph96%29.81 "Hg5 mi
3:00 AM53 °FOvercast.3 mph94%29.81 "Hg9 mi
2:00 AM51 °FOvercast.3 mph94%29.83 "Hg7 mi
Weather by CustomWeather, © 2015

See weather overviewHow to use our weather pages